Location: Waco, TX
(31.5480°N, 97.1670°W)
Time: 09:32:14
(UTC-05:00)

ISS - Pass Details

Date: 18 August 2018
Orbit: 402 x 409 km, 51.6° (Epoch: 18 August)

Event Time Altitude Azimuth Distance (km) Brightness Sun altitude
Rises 08:59:38 0° 187° (S) 2,299 -0.1 25.2°
Reaches altitude 10° 09:02:23 10° 162° (SSE) 1,444 -0.7 25.8°
Maximum altitude 09:04:14 14° 126° (SE) 1,207 -0.4 26.2°
Drops below altitude 10° 09:06:06 10° 91° (E) 1,447 0.8 26.6°
Sets 09:08:51 0° 66° (ENE) 2,309 1.0 27.2°
